QPF
0.08 0.07 0.04 0.03 0.03 0.02 0.02 0.03 0.03 0.03 0.02 0.03 0.03 0.02 0.03 0.03 0.04 0.05 0.05 0.07 0.07 0.06 0.05 0.05 0.04 0.04 0.04 0.04 0.04 0.04 0.03 0.03 0.02 0.02 0.03 0.04 0.03 0.04 0.04 0.04 0.05 0.05 0.06
0.09 0.13 0.06 0.03 0.04 0.04 0.05 0.05 0.04 0.06 0.09 0.08 0.05 0.06 0.06 0.06 0.10 0.13 0.12 0.09 0.08 0.06 0.05 0.06 0.06 0.05 0.04 0.03 0.03 0.03 0.03 0.03 0.02 0.02 0.02 0.04 0.04 0.03 0.04 0.04 0.05 0.05 0.04
0.07 0.08 0.05 0.04 0.04 0.06 0.08 0.10 0.10 0.11 0.12 0.10 0.07 0.08 0.12 0.14 0.13 0.12 0.12 0.08 0.07 0.05 0.04 0.04 0.05 0.04 0.03 0.02 0.01 0.02 0.02 0.03 0.03 0.03 0.03 0.04 0.04 0.04 0.06 0.05 0.05 0.05 0.04
0.04 0.05 0.04 0.03 0.05 0.09 0.12 0.11 0.09 0.09 0.10 0.09 0.08 0.09 0.11 0.08 0.04 0.04 0.04 0.04 0.04 0.04 0.02 0.02 0.02 0.02 0.02 0.02 0.01 0.01 0.01 0.02 0.03 0.04 0.04 0.05 0.03 0.03 0.05 0.06 0.06 0.06 0.03
0.03 0.03 0.02 0.02 0.04 0.08 0.13 0.14 0.09 0.11 0.14 0.12 0.07 0.05 0.04 0.03 0.03 0.03 0.02 0.02 0.02 0.02 0.03 0.02 0.02 0.02 0.01 0.01 0.01 0.01 0.01 0.01 0.02 0.03 0.04 0.05 0.05 0.04 0.03 0.05 0.06 0.07 0.04
0.03 0.03 0.03 0.04 0.06 0.07 0.07 0.07 0.07 0.10 0.10 0.06 0.04 0.04 0.03 0.03 0.03 0.03 0.03 0.04 0.06 0.06 0.04 0.04 0.03 0.03 0.02 0.02 0.01 0.01 0.02 0.01 0.01 0.02 0.03 0.04 0.04 0.05 0.04 0.03 0.04 0.05 0.05
0.04 0.05 0.06 0.06 0.05 0.05 0.05 0.03 0.03 0.03 0.04 0.03 0.03 0.03 0.03 0.03 0.03 0.04 0.07 0.09 0.10 0.08 0.05 0.04 0.04 0.04 0.04 0.03 0.02 0.02 0.02 0.01 0.02 0.02 0.02 0.03 0.04 0.05 0.04 0.03 0.02 0.03 0.04
0.05 0.06 0.06 0.05 0.05 0.04 0.04 0.02 0.02 0.02 0.02 0.02 0.02 0.03 0.02 0.02 0.02 0.02 0.04 0.06 0.08 0.06 0.03 0.03 0.03 0.04 0.03 0.02 0.02 0.02 0.02 0.02 0.02 0.02 0.02 0.02 0.03 0.05 0.05 0.03 0.02 0.02 0.02
0.05 0.07 0.08 0.08 0.07 0.05 0.04 0.04 0.03 0.02 0.01 0.02 0.02 0.02 0.02 0.02 0.02 0.02 0.02 0.02 0.02 0.03 0.03 0.03 0.03 0.02 0.02 0.02 0.01 0.01 0.01 0.02 0.02 0.02 0.02 0.02 0.02 0.03 0.04 0.04 0.03 0.03 0.02
0.05 0.07 0.11 0.13 0.11 0.07 0.05 0.05 0.05 0.04 0.03 0.03 0.03 0.03 0.03 0.03 0.03 0.03 0.02 0.02 0.02 0.03 0.03 0.04 0.03 0.03 0.03 0.02 0.02 0.01 0.01 0.02 0.02 0.02 0.03 0.02 0.01 0.01 0.01 0.01 0.02 0.02 0.02
0.05 0.08 0.11 0.13 0.13 0.10 0.09 0.08 0.07 0.07 0.06 0.04 0.05 0.04 0.05 0.05 0.05 0.04 0.02 0.02 0.03 0.03 0.03 0.04 0.03 0.02 0.02 0.01 0.02 0.02 0.01 0.01 0.02 0.03 0.03 0.04 0.02 0.01 0.01 0.01 0.01 0.01 0.02
0.05 0.06 0.09 0.10 0.12 0.14 0.13 0.11 0.08 0.06 0.06 0.05 0.06 0.06 0.05 0.06 0.06 0.05 0.04 0.04 0.05 0.04 0.04 0.04 0.02 0.01 0.01 0.01 0.02 0.02 0.02 0.02 0.01 0.02 0.03 0.04 0.04 0.01 0.01 0.01 0.01 0.00 0.01
0.08 0.06 0.07 0.11 0.15 0.14 0.11 0.08 0.06 0.04 0.05 0.06 0.07 0.07 0.06 0.06 0.06 0.06 0.05 0.05 0.06 0.05 0.04 0.03 0.02 0.01 0.02 0.02 0.02 0.03 0.04 0.03 0.03 0.02 0.02 0.03 0.03 0.01 0.01 0.01 0.01 0.01 0.01
0.06 0.04 0.05 0.08 0.10 0.10 0.11 0.10 0.06 0.03 0.05 0.06 0.07 0.07 0.06 0.05 0.05 0.05 0.04 0.04 0.04 0.04 0.03 0.03 0.03 0.02 0.02 0.03 0.03 0.03 0.03 0.03 0.03 0.03 0.03 0.02 0.01 0.01 0.01 0.01 0.01 0.01 0.01
0.07 0.05 0.06 0.06 0.05 0.04 0.04 0.05 0.04 0.03 0.03 0.03 0.03 0.05 0.06 0.07 0.06 0.05 0.04 0.04 0.04 0.03 0.04 0.05 0.04 0.03 0.03 0.04 0.04 0.04 0.03 0.04 0.04 0.03 0.03 0.02 0.02 0.02 0.02 0.02 0.01 0.01 0.01
0.11 0.09 0.05 0.04 0.03 0.02 0.02 0.02 0.03 0.03 0.03 0.02 0.03 0.04 0.06 0.06 0.06 0.07 0.07 0.06 0.07 0.07 0.07 0.05 0.04 0.04 0.05 0.06 0.05 0.05 0.04 0.04 0.03 0.04 0.04 0.05 0.05 0.05 0.04 0.03 0.02 0.02 0.02
0.10 0.09 0.05 0.03 0.02 0.01 0.01 0.01 0.02 0.03 0.03 0.02 0.03 0.03 0.04 0.04 0.04 0.05 0.06 0.07 0.08 0.09 0.09 0.07 0.05 0.04 0.04 0.05 0.04 0.03 0.03 0.03 0.03 0.02 0.02 0.03 0.04 0.05 0.05 0.05 0.04 0.04 0.02
0.08 0.07 0.04 0.04 0.03 0.01 0.01 0.01 0.02 0.02 0.02 0.02 0.03 0.03 0.03 0.04 0.05 0.04 0.04 0.04 0.05 0.06 0.08 0.09 0.07 0.05 0.06 0.04 0.02 0.02 0.02 0.02 0.01 0.01 0.01 0.01 0.01 0.02 0.03 0.03 0.03 0.02 0.02
0.11 0.06 0.03 0.02 0.01 0.01 0.01 0.01 0.02 0.02 0.01 0.01 0.02 0.03 0.03 0.04 0.04 0.04 0.04 0.04 0.04 0.04 0.05 0.06 0.07 0.07 0.07 0.03 0.01 0.01 0.01 0.01 0.01 0.01 0.01 0.01 0.01 0.02 0.03 0.02 0.02 0.02 0.02
0.10 0.05 0.02 0.02 0.01 0.01 0.01 0.02 0.02 0.02 0.01 0.01 0.01 0.02 0.02 0.03 0.03 0.03 0.03 0.03 0.04 0.04 0.04 0.04 0.04 0.06 0.05 0.03 0.02 0.02 0.01 0.01 0.02 0.02 0.02 0.02 0.01 0.01 0.01 0.02 0.02 0.02 0.03
0.05 0.04 0.02 0.02 0.01 0.01 0.01 0.01 0.02 0.02 0.02 0.02 0.02 0.02 0.02 0.03 0.03 0.05 0.04 0.04 0.04 0.04 0.03 0.03 0.03 0.04 0.04 0.03 0.03 0.03 0.02 0.02 0.02 0.02 0.01 0.01 0.01 0.01 0.01 0.02 0.02 0.03 0.05
0.04 0.03 0.02 0.01 0.01 0.01 0.01 0.01 0.02 0.02 0.02 0.03 0.04 0.04 0.03 0.03 0.03 0.05 0.03 0.04 0.04 0.04 0.03 0.02 0.02 0.02 0.03 0.02 0.02 0.02 0.02 0.02 0.01 0.01 0.00 0.00 0.01 0.02 0.02 0.03 0.04 0.04 0.05
0.04 0.03 0.02 0.01 0.01 0.01 0.02 0.02 0.01 0.01 0.02 0.04 0.08 0.09 0.08 0.05 0.06 0.06 0.05 0.04 0.04 0.04 0.03 0.03 0.03 0.03 0.02 0.02 0.02 0.01 0.01 0.01 0.00 0.00 0.00 0.00 0.01 0.01 0.02 0.04 0.05 0.05 0.05
0.05 0.05 0.03 0.02 0.01 0.01 0.02 0.01 0.01 0.02 0.02 0.02 0.05 0.10 0.12 0.11 0.09 0.07 0.06 0.05 0.05 0.04 0.03 0.04 0.03 0.03 0.02 0.02 0.02 0.02 0.01 0.01 0.00 0.00 0.00 0.00 0.00 0.00 0.01 0.03 0.04 0.03 0.03
0.05 0.04 0.04 0.04 0.02 0.02 0.02 0.01 0.01 0.02 0.02 0.02 0.03 0.04 0.06 0.11 0.13 0.11 0.10 0.10 0.08 0.07 0.04 0.03 0.02 0.03 0.03 0.03 0.03 0.02 0.02 0.01 0.01 0.00 0.00 0.01 0.01 0.01 0.01 0.01 0.02 0.02 0.02
0.04 0.04 0.04 0.04 0.03 0.02 0.02 0.02 0.02 0.02 0.02 0.02 0.01 0.01 0.02 0.04 0.07 0.09 0.08 0.08 0.07 0.06 0.05 0.04 0.04 0.04 0.04 0.04 0.04 0.04 0.03 0.03 0.03 0.02 0.01 0.01 0.01 0.01 0.01 0.01 0.01 0.01 0.02
MSLP
1004.46 1004.31 1004.34 1004.53 1004.86 1005.32 1005.87 1006.49 1007.15 1007.82 1008.47 1009.10 1009.69 1010.23 1010.74 1011.19 1011.61 1011.99 1012.34 1012.65 1012.92 1013.17 1013.40 1013.61 1013.83 1014.06 1014.31 1014.56 1014.83 1015.09 1015.34 1015.55 1015.72 1015.84 1015.90 1015.90 1015.85 1015.76 1015.64 1015.51 1015.37 1015.24 1015.13
1003.67 1003.57 1003.64 1003.86 1004.20 1004.66 1005.21 1005.83 1006.50 1007.20 1007.90 1008.58 1009.23 1009.82 1010.36 1010.85 1011.29 1011.69 1012.05 1012.39 1012.70 1013.00 1013.28 1013.56 1013.82 1014.08 1014.33 1014.57 1014.82 1015.05 1015.27 1015.47 1015.65 1015.79 1015.89 1015.94 1015.94 1015.89 1015.80 1015.67 1015.51 1015.35 1015.19
1002.88 1002.79 1002.86 1003.07 1003.39 1003.82 1004.35 1004.96 1005.65 1006.39 1007.15 1007.90 1008.62 1009.29 1009.90 1010.43 1010.91 1011.33 1011.72 1012.09 1012.45 1012.80 1013.13 1013.45 1013.75 1014.03 1014.28 1014.52 1014.74 1014.95 1015.15 1015.35 1015.54 1015.71 1015.86 1015.97 1016.04 1016.05 1016.00 1015.89 1015.74 1015.55 1015.35
1002.11 1002.00 1002.03 1002.19 1002.45 1002.83 1003.31 1003.91 1004.61 1005.40 1006.23 1007.07 1007.89 1008.66 1009.34 1009.95 1010.47 1010.94 1011.37 1011.77 1012.16 1012.55 1012.92 1013.27 1013.60 1013.90 1014.15 1014.37 1014.58 1014.77 1014.96 1015.16 1015.37 1015.59 1015.80 1015.98 1016.11 1016.19 1016.19 1016.12 1015.98 1015.78 1015.55
1001.44 1001.26 1001.22 1001.28 1001.45 1001.74 1002.17 1002.74 1003.45 1004.29 1005.20 1006.14 1007.07 1007.94 1008.73 1009.42 1010.01 1010.52 1010.98 1011.42 1011.83 1012.24 1012.64 1013.01 1013.35 1013.65 1013.91 1014.13 1014.32 1014.50 1014.69 1014.91 1015.14 1015.40 1015.66 1015.91 1016.11 1016.24 1016.30 1016.26 1016.14 1015.94 1015.68
1000.91 1000.64 1000.48 1000.42 1000.47 1000.66 1001.01 1001.54 1002.26 1003.13 1004.12 1005.17 1006.21 1007.20 1008.09 1008.86 1009.52 1010.08 1010.57 1011.02 1011.45 1011.87 1012.27 1012.65 1013.00 1013.30 1013.56 1013.77 1013.96 1014.15 1014.35 1014.57 1014.84 1015.13 1015.43 1015.72 1015.97 1016.15 1016.25 1016.24 1016.14 1015.94 1015.66
1000.55 1000.17 999.88 999.68 999.60 999.67 999.93 1000.41 1001.13 1002.04 1003.10 1004.24 1005.39 1006.48 1007.47 1008.32 1009.03 1009.63 1010.15 1010.61 1011.04 1011.45 1011.85 1012.22 1012.56 1012.86 1013.11 1013.33 1013.52 1013.71 1013.92 1014.16 1014.43 1014.75 1015.07 1015.39 1015.66 1015.87 1015.99 1016.01 1015.92 1015.74 1015.46
1000.36 999.87 999.44 999.10 998.88 998.83 999.01 999.45 1000.15 1001.10 1002.21 1003.43 1004.66 1005.84 1006.90 1007.81 1008.57 1009.20 1009.73 1010.18 1010.60 1011.00 1011.38 1011.74 1012.07 1012.36 1012.61 1012.83 1013.02 1013.21 1013.42 1013.67 1013.95 1014.27 1014.59 1014.91 1015.19 1015.40 1015.53 1015.56 1015.49 1015.32 1015.07
1000.29 999.69 999.15 998.67 998.33 998.19 998.30 998.70 999.40 1000.36 1001.53 1002.80 1004.09 1005.33 1006.43 1007.38 1008.17 1008.81 1009.33 1009.78 1010.18 1010.56 1010.93 1011.27 1011.58 1011.86 1012.11 1012.32 1012.51 1012.70 1012.91 1013.15 1013.42 1013.71 1014.02 1014.31 1014.57 1014.77 1014.89 1014.93 1014.87 1014.74 1014.53
1000.23 999.57 998.93 998.36 997.94 997.73 997.80 998.18 998.90 999.88 1001.08 1002.39 1003.72 1004.98 1006.11 1007.06 1007.85 1008.48 1008.99 1009.43 1009.82 1010.18 1010.52 1010.85 1011.15 1011.41 1011.64 1011.85 1012.03 1012.21 1012.41 1012.63 1012.87 1013.13 1013.40 1013.66 1013.88 1014.05 1014.15 1014.19 1014.16 1014.06 1013.91
1000.11 999.40 998.72 998.11 997.65 997.42 997.50 997.91 998.65 999.68 1000.90 1002.23 1003.57 1004.83 1005.94 1006.88 1007.64 1008.25 1008.75 1009.17 1009.54 1009.88 1010.21 1010.52 1010.81 1011.06 1011.27 1011.46 1011.63 1011.79 1011.96 1012.15 1012.36 1012.58 1012.81 1013.01 1013.19 1013.33 1013.41 1013.44 1013.43 1013.37 1013.26
999.85 999.14 998.45 997.85 997.42 997.24 997.37 997.84 998.65 999.72 1000.98 1002.32 1003.64 1004.87 1005.95 1006.85 1007.57 1008.15 1008.61 1009.01 1009.36 1009.70 1010.02 1010.31 1010.58 1010.81 1011.01 1011.17 1011.31 1011.45 1011.59 1011.74 1011.91 1012.09 1012.27 1012.44 1012.57 1012.67 1012.73 1012.75 1012.75 1012.71 1012.65
999.43 998.77 998.13 997.59 997.24 997.15 997.39 997.96 998.85 999.99 1001.27 1002.61 1003.91 1005.09 1006.11 1006.95 1007.62 1008.15 1008.58 1008.96 1009.30 1009.62 1009.93 1010.22 1010.46 1010.67 1010.84 1010.97 1011.08 1011.18 1011.28 1011.40 1011.54 1011.69 1011.83 1011.95 1012.05 1012.12 1012.15 1012.16 1012.15 1012.12 1012.08
998.92 998.33 997.77 997.34 997.12 997.17 997.55 998.25 999.24 1000.44 1001.75 1003.08 1004.33 1005.45 1006.39 1007.16 1007.76 1008.24 1008.64 1008.99 1009.32 1009.64 1009.93 1010.20 1010.42 1010.60 1010.73 1010.82 1010.89 1010.95 1011.02 1011.11 1011.22 1011.34 1011.45 1011.56 1011.63 1011.67 1011.68 1011.66 1011.63 1011.59 1011.54
998.40 997.91 997.47 997.18 997.11 997.33 997.86 998.69 999.78 1001.04 1002.36 1003.66 1004.85 1005.89 1006.74 1007.42 1007.95 1008.38 1008.74 1009.07 1009.39 1009.69 1009.97 1010.22 1010.41 1010.55 1010.63 1010.67 1010.70 1010.72 1010.76 1010.82 1010.91 1011.02 1011.13 1011.22 1011.27 1011.29 1011.27 1011.22 1011.16 1011.08 1011.00
998.01 997.64 997.33 997.19 997.29 997.67 998.35 999.30 1000.46 1001.74 1003.05 1004.29 1005.40 1006.34 1007.10 1007.69 1008.14 1008.51 1008.84 1009.15 1009.45 1009.74 1010.00 1010.22 1010.38 1010.47 1010.50 1010.49 1010.47 1010.45 1010.46 1010.51 1010.59 1010.70 1010.81 1010.90 1010.95 1010.95 1010.90 1010.81 1010.69 1010.56 1010.42
997.89 997.63 997.47 997.48 997.72 998.24 999.03 1000.06 1001.25 1002.52 1003.78 1004.94 1005.94 1006.76 1007.41 1007.91 1008.29 1008.61 1008.90 1009.19 1009.47 1009.74 1009.98 1010.17 1010.28 1010.33 1010.31 1010.25 1010.17 1010.12 1010.10 1010.14 1010.23 1010.34 1010.46 1010.56 1010.61 1010.60 1010.52 1010.39 1010.21 1010.00 1009.78
998.13 998.00 997.97 998.11 998.47 999.08 999.93 1000.98 1002.15 1003.36 1004.51 1005.55 1006.43 1007.12 1007.66 1008.06 1008.37 1008.65 1008.91 1009.18 1009.44 1009.70 1009.91 1010.06 1010.13 1010.12 1010.04 1009.93 1009.82 1009.73 1009.70 1009.73 1009.82 1009.94 1010.07 1010.18 1010.23 1010.21 1010.10 1009.92 1009.67 1009.39 1009.09
998.77 998.76 998.84 999.09 999.53 1000.19 1001.04 1002.05 1003.14 1004.23 1005.25 1006.14 1006.87 1007.43 1007.85 1008.17 1008.42 1008.65 1008.88 1009.13 1009.38 1009.61 1009.79 1009.90 1009.93 1009.87 1009.74 1009.59 1009.43 1009.32 1009.27 1009.29 1009.38 1009.51 1009.65 1009.76 1009.81 1009.77 1009.63 1009.40 1009.09 1008.74 1008.36
999.78 999.88 1000.06 1000.38 1000.86 1001.52 1002.33 1003.25 1004.21 1005.15 1006.00 1006.72 1007.29 1007.72 1008.04 1008.27 1008.47 1008.67 1008.88 1009.10 1009.33 1009.53 1009.68 1009.75 1009.72 1009.62 1009.45 1009.25 1009.06 1008.92 1008.86 1008.87 1008.96 1009.09 1009.22 1009.32 1009.35 1009.28 1009.11 1008.83 1008.46 1008.04 1007.59
1001.07 1001.28 1001.54 1001.90 1002.39 1003.01 1003.73 1004.53 1005.34 1006.10 1006.77 1007.33 1007.75 1008.06 1008.28 1008.44 1008.59 1008.76 1008.94 1009.14 1009.34 1009.51 1009.61 1009.63 1009.56 1009.41 1009.20 1008.97 1008.76 1008.60 1008.51 1008.52 1008.59 1008.70 1008.81 1008.89 1008.88 1008.78 1008.56 1008.22 1007.80 1007.32 1006.81
1002.53 1002.82 1003.15 1003.54 1004.02 1004.58 1005.20 1005.86 1006.51 1007.10 1007.60 1008.00 1008.29 1008.49 1008.63 1008.74 1008.84 1008.97 1009.13 1009.29 1009.45 1009.57 1009.63 1009.60 1009.48 1009.28 1009.04 1008.78 1008.55 1008.37 1008.27 1008.25 1008.29 1008.37 1008.44 1008.47 1008.42 1008.26 1007.98 1007.59 1007.12 1006.58 1006.01
1004.01 1004.38 1004.77 1005.18 1005.63 1006.13 1006.66 1007.18 1007.68 1008.12 1008.47 1008.74 1008.92 1009.04 1009.12 1009.18 1009.25 1009.34 1009.46 1009.58 1009.68 1009.74 1009.74 1009.65 1009.48 1009.25 1008.98 1008.70 1008.45 1008.25 1008.13 1008.08 1008.08 1008.11 1008.13 1008.09 1007.97 1007.75 1007.40 1006.95 1006.42 1005.83 1005.21
1005.42 1005.86 1006.28 1006.71 1007.14 1007.58 1008.02 1008.44 1008.81 1009.13 1009.38 1009.55 1009.65 1009.71 1009.74 1009.76 1009.80 1009.85 1009.91 1009.97 1010.01 1010.00 1009.93 1009.79 1009.57 1009.30 1009.01 1008.71 1008.45 1008.23 1008.09 1008.00 1007.96 1007.93 1007.87 1007.76 1007.55 1007.25 1006.83 1006.31 1005.72 1005.08 1004.43
1006.68 1007.16 1007.62 1008.05 1008.47 1008.86 1009.24 1009.57 1009.86 1010.09 1010.26 1010.37 1010.43 1010.44 1010.45 1010.44 1010.43 1010.44 1010.44 1010.43 1010.40 1010.31 1010.17 1009.97 1009.71 1009.41 1009.10 1008.80 1008.53 1008.30 1008.13 1008.01 1007.91 1007.81 1007.67 1007.47 1007.18 1006.79 1006.29 1005.71 1005.07 1004.38 1003.69
1007.75 1008.27 1008.74 1009.17 1009.57 1009.93 1010.26 1010.54 1010.77 1010.94 1011.07 1011.14 1011.17 1011.17 1011.15 1011.12 1011.08 1011.03 1010.98 1010.90 1010.78 1010.63 1010.42 1010.17 1009.88 1009.56 1009.24 1008.94 1008.67 1008.44 1008.24 1008.08 1007.93 1007.75 1007.54 1007.25 1006.87 1006.40 1005.84 1005.20 1004.50 1003.78 1003.06
Thickness
5780 5778 5776 5775 5771 5767 5763 5759 5754 5751 5748 5744 5740 5736 5732 5730 5728 5727 5724 5722 5719 5717 5714 5711 5708 5706 5704 5701 5699 5697 5695 5693 5693 5690 5688 5689 5691 5692 5692 5691 5691 5690 5690
5773 5771 5770 5768 5765 5762 5760 5756 5752 5748 5745 5741 5738 5735 5731 5727 5725 5723 5720 5719 5717 5714 5711 5708 5705 5703 5700 5697 5695 5693 5689 5688 5688 5684 5679 5677 5679 5683 5687 5686 5685 5685 5685
5771 5768 5767 5765 5762 5759 5756 5754 5749 5746 5742 5739 5735 5731 5726 5722 5719 5717 5715 5714 5713 5711 5708 5706 5702 5699 5696 5692 5690 5688 5685 5681 5681 5681 5677 5671 5669 5672 5677 5679 5679 5679 5679
5772 5768 5765 5763 5761 5758 5756 5752 5748 5744 5740 5736 5731 5726 5721 5717 5715 5714 5712 5711 5709 5707 5705 5702 5699 5696 5693 5689 5686 5684 5682 5679 5676 5676 5675 5673 5671 5666 5665 5669 5672 5673 5674
5770 5766 5764 5762 5759 5756 5753 5749 5745 5741 5737 5734 5730 5725 5720 5717 5713 5711 5709 5706 5705 5703 5701 5698 5695 5692 5689 5686 5683 5680 5678 5676 5673 5671 5670 5668 5667 5665 5662 5660 5663 5665 5668
5766 5762 5761 5758 5754 5751 5748 5745 5740 5737 5734 5731 5727 5724 5719 5714 5710 5707 5704 5702 5699 5698 5696 5694 5691 5688 5685 5682 5680 5677 5674 5672 5670 5668 5666 5664 5662 5659 5657 5655 5655 5656 5660
5758 5755 5753 5751 5748 5745 5743 5741 5737 5733 5731 5728 5725 5722 5718 5714 5709 5705 5701 5698 5695 5693 5692 5690 5687 5684 5682 5679 5676 5673 5671 5668 5666 5664 5663 5662 5660 5658 5655 5652 5650 5650 5651
5751 5750 5748 5746 5744 5742 5739 5737 5734 5731 5729 5726 5722 5720 5716 5712 5708 5704 5701 5697 5694 5692 5690 5687 5684 5681 5678 5676 5672 5669 5667 5665 5662 5661 5659 5658 5656 5655 5653 5650 5646 5642 5642
5746 5745 5744 5742 5741 5738 5736 5735 5732 5729 5727 5724 5720 5716 5713 5710 5706 5703 5700 5696 5693 5690 5687 5684 5680 5677 5674 5671 5668 5664 5662 5660 5658 5657 5655 5654 5652 5651 5649 5647 5644 5639 5635
5740 5740 5740 5739 5738 5736 5734 5733 5730 5727 5723 5721 5718 5715 5711 5708 5705 5701 5697 5694 5691 5688 5684 5681 5677 5674 5671 5668 5664 5660 5658 5655 5654 5652 5650 5649 5648 5646 5644 5643 5641 5638 5634
5735 5735 5735 5735 5733 5732 5730 5727 5725 5722 5718 5717 5714 5712 5709 5706 5703 5698 5695 5692 5688 5685 5682 5679 5675 5671 5667 5664 5660 5656 5654 5651 5649 5647 5646 5644 5643 5641 5640 5638 5636 5633 5631
5731 5731 5731 5730 5728 5724 5722 5720 5718 5717 5715 5713 5711 5708 5705 5703 5699 5696 5693 5690 5686 5683 5680 5676 5672 5669 5665 5661 5657 5653 5650 5647 5644 5642 5641 5639 5638 5636 5635 5633 5631 5629 5628
5724 5724 5723 5723 5721 5718 5716 5714 5713 5712 5711 5709 5706 5703 5701 5698 5695 5693 5690 5687 5683 5680 5677 5673 5669 5666 5662 5658 5654 5650 5647 5644 5641 5639 5637 5635 5633 5632 5631 5629 5627 5626 5625
5718 5716 5715 5715 5715 5714 5712 5710 5707 5707 5706 5705 5701 5699 5697 5695 5693 5690 5687 5684 5681 5677 5674 5670 5667 5663 5659 5655 5651 5647 5644 5641 5639 5637 5635 5633 5631 5629 5627 5626 5624 5622 5620
5710 5710 5709 5709 5709 5708 5707 5705 5703 5703 5702 5699 5697 5695 5694 5692 5690 5686 5683 5681 5678 5675 5671 5667 5663 5659 5656 5653 5649 5645 5643 5639 5636 5634 5633 5631 5630 5629 5626 5625 5622 5620 5616
5706 5707 5706 5705 5704 5703 5702 5700 5699 5698 5697 5694 5692 5691 5690 5688 5685 5683 5679 5677 5674 5670 5667 5663 5659 5655 5653 5651 5648 5644 5641 5638 5635 5632 5631 5630 5628 5627 5626 5625 5623 5620 5616
5703 5701 5702 5701 5699 5698 5697 5695 5694 5693 5692 5690 5688 5686 5685 5682 5681 5679 5675 5672 5669 5666 5663 5660 5656 5652 5650 5648 5645 5642 5639 5636 5633 5631 5629 5629 5628 5626 5624 5622 5621 5619 5618
5697 5697 5696 5695 5695 5693 5692 5691 5689 5687 5686 5684 5683 5681 5680 5678 5676 5673 5670 5668 5665 5661 5659 5656 5653 5650 5647 5645 5642 5640 5636 5634 5632 5630 5628 5626 5626 5625 5622 5620 5618 5616 5615
5692 5691 5691 5691 5689 5687 5686 5685 5683 5681 5680 5679 5678 5677 5675 5672 5670 5668 5665 5663 5660 5657 5655 5653 5650 5647 5644 5642 5640 5637 5633 5631 5629 5629 5627 5626 5624 5624 5621 5618 5616 5614 5614
5686 5684 5683 5683 5682 5681 5680 5678 5676 5675 5674 5674 5673 5672 5671 5668 5666 5663 5662 5659 5657 5653 5651 5648 5646 5644 5641 5640 5637 5635 5631 5628 5627 5626 5625 5625 5624 5622 5620 5617 5615 5613 5613
5679 5678 5677 5675 5675 5675 5673 5670 5669 5668 5669 5669 5668 5667 5665 5663 5661 5659 5657 5654 5652 5649 5646 5644 5642 5640 5639 5637 5635 5632 5629 5627 5625 5623 5623 5623 5623 5621 5619 5618 5616 5615 5614
5670 5670 5669 5668 5668 5667 5665 5663 5662 5663 5664 5663 5662 5661 5659 5659 5657 5653 5651 5649 5646 5643 5640 5638 5636 5636 5635 5634 5632 5630 5628 5627 5624 5622 5622 5621 5621 5620 5619 5617 5617 5616 5613
5661 5661 5660 5659 5659 5659 5658 5656 5656 5657 5656 5655 5654 5653 5653 5652 5651 5648 5645 5642 5640 5637 5635 5632 5631 5630 5631 5630 5630 5628 5626 5624 5622 5622 5621 5620 5619 5618 5617 5617 5616 5614 5612
5652 5652 5651 5650 5650 5651 5651 5650 5650 5650 5649 5647 5646 5646 5645 5644 5644 5643 5640 5637 5634 5632 5630 5628 5626 5626 5625 5626 5625 5624 5622 5620 5619 5618 5618 5617 5616 5616 5616 5615 5613 5612 5611
5643 5643 5642 5640 5641 5642 5642 5643 5643 5642 5640 5639 5638 5638 5637 5636 5635 5635 5633 5632 5631 5629 5626 5625 5623 5621 5621 5623 5623 5621 5619 5617 5616 5614 5612 5612 5611 5611 5611 5611 5611 5610 5609
5634 5633 5632 5632 5632 5633 5633 5634 5635 5635 5633 5631 5630 5629 5628 5628 5628 5627 5626 5627 5626 5625 5624 5623 5621 5620 5620 5620 5619 5617 5616 5614 5612 5609 5608 5609 5608 5609 5609 5609 5609 5609 5608